TimeEDT,TemperatureF,Dew PointF,Humidity,Sea Level PressureIn,VisibilityMPH,Wind Direction,Wind SpeedMPH,Gust SpeedMPH,PrecipitationIn,Events,Conditions,WindDirDegrees,DateUTC
12:51 AM,39.9,26.1,58,29.70,10.0,SE,3.5,-,N/A,,Overcast,130,2013-03-25 04:51:00
1:51 AM,39.0,27.0,62,29.70,10.0,ESE,3.5,-,N/A,,Overcast,110,2013-03-25 05:51:00
2:51 AM,39.9,26.1,58,29.67,10.0,ENE,4.6,-,N/A,,Overcast,70,2013-03-25 06:51:00
3:51 AM,39.9,27.0,60,29.64,10.0,ENE,6.9,-,N/A,,Overcast,70,2013-03-25 07:51:00
4:51 AM,39.2,24.8,56,29.62,10.0,ENE,5.8,-,N/A,,Overcast,70,2013-03-25 08:51:00
5:51 AM,39.9,26.1,58,29.62,10.0,ENE,10.4,-,N/A,,Overcast,60,2013-03-25 09:51:00
6:51 AM,39.0,28.0,65,29.60,10.0,NE,12.7,-,N/A,,Overcast,40,2013-03-25 10:51:00
7:51 AM,39.2,28.4,65,29.60,10.0,NE,12.7,-,N/A,,Overcast,40,2013-03-25 11:51:00
9:51 AM,39.0,25.0,57,29.60,10.0,ENE,18.4,26.5,N/A,,Overcast,60,2013-03-25 13:51:00
10:44 AM,37.4,26.6,65,29.59,3.0,NE,18.4,34.5,0.00,Snow,Light Snow,50,2013-03-25 14:44:00
10:51 AM,37.9,28.0,68,29.59,3.0,NE,19.6,28.8,0.00,Snow,Light Snow,50,2013-03-25 14:51:00
11:12 AM,35.6,30.2,81,29.59,1.5,ENE,11.5,28.8,0.00,Snow,Light Snow,70,2013-03-25 15:12:00
11:51 AM,35.1,32.0,89,29.57,1.5,NE,9.2,24.2,0.01,Snow,Light Snow,50,2013-03-25 15:51:00
12:19 PM,37.4,32.0,81,29.55,2.5,NE,12.7,-,0.01,Snow,Light Snow,50,2013-03-25 16:19:00
12:51 PM,37.9,32.0,79,29.54,2.5,NE,13.8,20.7,0.01,Rain,Light Rain,40,2013-03-25 16:51:00
1:06 PM,39.2,30.2,70,29.52,3.0,NE,15.0,24.2,0.00,Rain,Light Rain,40,2013-03-25 17:06:00
1:51 PM,39.0,30.9,73,29.51,3.0,NE,20.7,29.9,0.00,Rain,Light Rain,50,2013-03-25 17:51:00
2:51 PM,37.0,33.1,86,29.49,3.0,NE,11.5,20.7,0.01,Rain-Snow,Light Rain,50,2013-03-25 18:51:00
3:42 PM,37.4,33.8,87,29.48,3.0,NE,4.6,-,0.02,Rain,Light Rain,50,2013-03-25 19:42:00
3:51 PM,37.9,35.1,89,29.48,3.0,NE,8.1,-,0.02,Rain,Light Rain,40,2013-03-25 19:51:00
4:51 PM,37.9,35.1,89,29.48,3.0,North,9.2,-,0.02,Rain,Light Rain,10,2013-03-25 20:51:00
5:51 PM,37.9,35.1,89,29.49,5.0,North,10.4,-,0.02,Rain,Light Rain,350,2013-03-25 21:51:00
6:51 PM,37.9,35.1,89,29.51,5.0,NW,6.9,-,0.01,Rain,Light Rain,320,2013-03-25 22:51:00
7:51 PM,37.9,35.1,89,29.53,6.0,NW,9.2,-,0.02,Rain,Light Rain,320,2013-03-25 23:51:00
8:13 PM,37.4,35.6,93,29.54,6.0,NNW,10.4,-,0.00,Rain,Light Rain,340,2013-03-26 00:13:00
8:51 PM,37.9,34.0,86,29.56,8.0,North,13.8,-,0.00,Rain,Light Rain,10,2013-03-26 00:51:00
9:51 PM,37.9,33.1,83,29.58,10.0,North,10.4,-,0.00,,Overcast,360,2013-03-26 01:51:00
10:05 PM,37.4,33.8,87,29.58,10.0,NNW,9.2,-,N/A,,Mostly Cloudy,340,2013-03-26 02:05:00
10:51 PM,39.0,32.0,76,29.58,10.0,NNW,3.5,-,N/A,,Mostly Cloudy,330,2013-03-26 02:51:00
11:51 PM,37.9,30.9,76,29.59,10.0,NNW,12.7,-,N/A,,Overcast,330,2013-03-26 03:51:00